Time,TemperatureF,DewpointF,PressureIn,WindDirection,WindDirectionDegrees,WindSpeedMPH,WindSpeedGustMPH,Humidity,HourlyPrecipIn,Conditions,Clouds,dailyrainin,SoftwareType,DateUTC
2013-08-21 00:00:00,76.0,73.2,30.06,NE,41,0.0,1.0,91,0.00,,,0.00,WeatherCatV1.21B27,2013-08-21 04:00:00,
2013-08-21 00:01:00,76.0,73.2,30.06,NE,41,0.0,1.0,91,0.00,,,0.00,WeatherCatV1.21B27,2013-08-21 04:01:00,
2013-08-21 00:02:00,76.0,73.2,30.06,NE,41,1.0,1.0,91,0.00,,,0.00,WeatherCatV1.21B27,2013-08-21 04:02:00,
2013-08-21 00:07:00,75.9,73.1,30.06,NE,46,1.0,1.0,91,0.00,,,0.00,WeatherCatV1.21B27,2013-08-21 04:07:00,
2013-08-21 00:12:00,75.9,73.1,30.06,NE,46,0.0,0.0,91,0.00,,,0.00,WeatherCatV1.21B27,2013-08-21 04:12:00,
2013-08-21 00:17:00,75.8,73.0,30.06,NE,46,0.0,0.0,91,0.00,,,0.00,WeatherCatV1.21B27,2013-08-21 04:17:00,
2013-08-21 00:22:00,75.8,73.0,30.07,NE,46,0.0,0.0,91,0.00,,,0.00,WeatherCatV1.21B27,2013-08-21 04:22:00,
2013-08-21 00:27:00,75.8,73.0,30.07,NE,36,0.0,2.0,91,0.00,,,0.00,WeatherCatV1.21B27,2013-08-21 04:27:00,
2013-08-21 00:32:00,75.8,73.3,30.07,NE,36,0.0,1.0,92,0.00,,,0.00,WeatherCatV1.21B27,2013-08-21 04:32:00,
2013-08-21 00:37:00,75.8,73.3,30.07,NNE,27,0.0,0.0,92,0.00,,,0.00,WeatherCatV1.21B27,2013-08-21 04:37:00,
2013-08-21 00:42:00,75.9,73.4,30.07,NNE,17,0.0,4.0,92,0.00,,,0.00,WeatherCatV1.21B27,2013-08-21 04:42:00,
2013-08-21 00:47:00,76.0,73.5,30.07,NNE,19,0.0,1.0,92,0.00,,,0.00,WeatherCatV1.21B27,2013-08-21 04:47:00,
2013-08-21 00:52:00,76.0,73.5,30.06,NNE,29,0.0,1.0,92,0.00,,,0.00,WeatherCatV1.21B27,2013-08-21 04:52:00,
2013-08-21 00:57:00,76.0,73.5,30.07,NE,36,0.0,1.0,92,0.00,,,0.00,WeatherCatV1.21B27,2013-08-21 04:57:00,
2013-08-21 01:02:00,76.0,73.5,30.07,NE,34,0.0,2.0,92,0.00,,,0.00,WeatherCatV1.21B27,2013-08-21 05:02:00,
2013-08-21 01:07:00,76.1,73.6,30.07,NE,34,0.0,2.0,92,0.00,,,0.00,WeatherCatV1.21B27,2013-08-21 05:07:00,
2013-08-21 01:12:00,76.1,73.6,30.07,NNE,27,0.0,2.0,92,0.00,,,0.00,WeatherCatV1.21B27,2013-08-21 05:12:00,
2013-08-21 01:17:00,76.1,73.6,30.07,NNE,27,0.0,0.0,92,0.00,,,0.00,WeatherCatV1.21B27,2013-08-21 05:17:00,
2013-08-21 01:22:00,76.0,73.5,30.07,NNE,27,0.0,0.0,92,0.00,,,0.00,WeatherCatV1.21B27,2013-08-21 05:22:00,
2013-08-21 01:27:00,76.0,73.5,30.07,ENE,57,0.0,1.0,92,0.00,,,0.00,WeatherCatV1.21B27,2013-08-21 05:27:00,
2013-08-21 01:32:00,76.0,73.5,30.07,ENE,57,0.0,1.0,92,0.00,,,0.00,WeatherCatV1.21B27,2013-08-21 05:32:00,
2013-08-21 01:37:00,76.0,73.5,30.07,ENE,57,0.0,0.0,92,0.00,,,0.00,WeatherCatV1.21B27,2013-08-21 05:37:00,
2013-08-21 01:42:00,76.0,73.5,30.07,ENE,57,0.0,2.0,92,0.00,,,0.00,WeatherCatV1.21B27,2013-08-21 05:42:00,
2013-08-21 01:47:00,75.9,73.4,30.07,ENE,57,0.0,1.0,92,0.00,,,0.00,WeatherCatV1.21B27,2013-08-21 05:47:00,
2013-08-21 01:52:00,75.9,73.4,30.07,ENE,57,0.0,0.0,92,0.00,,,0.00,WeatherCatV1.21B27,2013-08-21 05:52:00,
2013-08-21 01:57:00,75.8,73.3,30.06,ENE,57,0.0,0.0,92,0.00,,,0.00,WeatherCatV1.21B27,2013-08-21 05:57:00,
2013-08-21 02:02:00,75.8,73.3,30.06,ENE,57,0.0,1.0,92,0.00,,,0.00,WeatherCatV1.21B27,2013-08-21 06:02:00,
2013-08-21 02:07:00,75.8,73.3,30.06,NE,55,0.0,1.0,92,0.00,,,0.00,WeatherCatV1.21B27,2013-08-21 06:07:00,
2013-08-21 02:12:00,75.8,73.3,30.06,ENE,58,1.0,2.0,92,0.00,,,0.00,WeatherCatV1.21B27,2013-08-21 06:12:00,
2013-08-21 02:17:00,75.8,73.3,30.05,ENE,59,1.0,2.0,92,0.00,,,0.00,WeatherCatV1.21B27,2013-08-21 06:17:00,
2013-08-21 02:22:00,75.9,73.4,30.06,ESE,104,0.0,1.0,92,0.00,,,0.00,WeatherCatV1.21B27,2013-08-21 06:22:00,
2013-08-21 02:27:00,75.9,73.4,30.05,East,80,1.0,2.0,92,0.00,,,0.00,WeatherCatV1.21B27,2013-08-21 06:27:00,
2013-08-21 02:32:00,75.9,73.4,30.05,East,80,0.0,1.0,92,0.00,,,0.00,WeatherCatV1.21B27,2013-08-21 06:32:00,
2013-08-21 02:37:00,75.9,73.4,30.05,East,80,0.0,0.0,92,0.00,,,0.00,WeatherCatV1.21B27,2013-08-21 06:37:00,
2013-08-21 02:42:00,75.9,73.4,30.05,East,80,0.0,0.0,92,0.00,,,0.00,WeatherCatV1.21B27,2013-08-21 06:42:00,
2013-08-21 02:47:00,75.8,73.3,30.05,East,80,0.0,0.0,92,0.00,,,0.00,WeatherCatV1.21B27,2013-08-21 06:47:00,
2013-08-21 02:52:00,75.8,73.3,30.04,East,80,0.0,0.0,92,0.00,,,0.00,WeatherCatV1.21B27,2013-08-21 06:52:00,
2013-08-21 02:57:00,75.8,73.3,30.04,ENE,75,1.0,2.0,92,0.00,,,0.00,WeatherCatV1.21B27,2013-08-21 06:57:00,
2013-08-21 03:02:00,75.8,73.3,30.04,ENE,73,0.0,2.0,92,0.00,,,0.00,WeatherCatV1.21B27,2013-08-21 07:02:00,
2013-08-21 03:07:00,75.9,73.7,30.04,ENE,78,0.0,4.0,93,0.00,,,0.00,WeatherCatV1.21B27,2013-08-21 07:07:00,
2013-08-21 03:12:00,75.8,73.6,30.04,East,82,0.0,1.0,93,0.00,,,0.00,WeatherCatV1.21B27,2013-08-21 07:12:00,
2013-08-21 03:17:00,75.9,73.7,30.03,ENE,58,0.0,2.0,93,0.00,,,0.00,WeatherCatV1.21B27,2013-08-21 07:17:00,
2013-08-21 03:22:00,75.9,73.7,30.03,ENE,71,0.0,4.0,93,0.00,,,0.00,WeatherCatV1.21B27,2013-08-21 07:22:00,
2013-08-21 03:27:00,75.9,73.7,30.03,East,87,2.0,3.0,93,0.00,,,0.00,WeatherCatV1.21B27,2013-08-21 07:27:00,
2013-08-21 03:32:00,76.0,73.8,30.03,ENE,69,0.0,2.0,93,0.00,,,0.00,WeatherCatV1.21B27,2013-08-21 07:32:00,
2013-08-21 03:37:00,76.0,73.5,30.03,ENE,69,0.0,1.0,92,0.00,,,0.00,WeatherCatV1.21B27,2013-08-21 07:37:00,
2013-08-21 03:42:00,76.0,73.8,30.03,East,80,0.0,0.0,93,0.00,,,0.00,WeatherCatV1.21B27,2013-08-21 07:42:00,
2013-08-21 03:47:00,76.0,73.8,30.03,East,88,0.0,4.0,93,0.00,,,0.00,WeatherCatV1.21B27,2013-08-21 07:47:00,
2013-08-21 03:52:00,76.0,73.8,30.02,East,88,1.0,2.0,93,0.00,,,0.00,WeatherCatV1.21B27,2013-08-21 07:52:00,
2013-08-21 03:57:00,76.1,73.9,30.02,ENE,61,0.0,5.0,93,0.00,,,0.00,WeatherCatV1.21B27,2013-08-21 07:57:00,
2013-08-21 04:02:00,76.1,73.9,30.02,NE,42,2.0,4.0,93,0.00,,,0.00,WeatherCatV1.21B27,2013-08-21 08:02:00,
2013-08-21 04:07:00,76.2,74.0,30.03,NE,55,0.0,2.0,93,0.00,,,0.00,WeatherCatV1.21B27,2013-08-21 08:07:00,
2013-08-21 04:12:00,76.2,74.0,30.03,ESE,111,4.0,4.0,93,0.00,,,0.00,WeatherCatV1.21B27,2013-08-21 08:12:00,
2013-08-21 04:17:00,76.3,74.1,30.02,East,84,1.0,4.0,93,0.00,,,0.00,WeatherCatV1.21B27,2013-08-21 08:17:00,
2013-08-21 04:22:00,76.4,74.2,30.02,ENE,58,0.0,0.0,93,0.00,,,0.00,WeatherCatV1.21B27,2013-08-21 08:22:00,
2013-08-21 04:27:00,76.4,74.2,30.03,East,90,1.0,4.0,93,0.00,,,0.00,WeatherCatV1.21B27,2013-08-21 08:27:00,
2013-08-21 04:32:00,76.5,74.3,30.03,ENE,76,0.0,2.0,93,0.00,,,0.00,WeatherCatV1.21B27,2013-08-21 08:32:00,
2013-08-21 04:37:00,76.6,74.4,30.03,East,99,5.0,7.0,93,0.00,,,0.00,WeatherCatV1.21B27,2013-08-21 08:37:00,
2013-08-21 04:42:00,76.7,74.5,30.03,ESE,107,1.0,5.0,93,0.00,,,0.00,WeatherCatV1.21B27,2013-08-21 08:42:00,
2013-08-21 04:47:00,76.7,74.5,30.03,East,91,0.0,4.0,93,0.00,,,0.00,WeatherCatV1.21B27,2013-08-21 08:47:00,
2013-08-21 04:52:00,76.8,74.6,30.03,ENE,71,0.0,2.0,93,0.00,,,0.00,WeatherCatV1.21B27,2013-08-21 08:52:00,
2013-08-21 04:57:00,76.8,74.6,30.03,East,86,0.0,2.0,93,0.00,,,0.00,WeatherCatV1.21B27,2013-08-21 08:57:00,
2013-08-21 05:02:00,76.9,74.4,30.02,ENE,75,0.0,1.0,92,0.00,,,0.00,WeatherCatV1.21B27,2013-08-21 09:02:00,
2013-08-21 05:07:00,76.9,74.4,30.02,ENE,78,1.0,2.0,92,0.00,,,0.00,WeatherCatV1.21B27,2013-08-21 09:07:00,
2013-08-21 05:12:00,76.9,74.4,30.02,East,81,0.0,2.0,92,0.00,,,0.00,WeatherCatV1.21B27,2013-08-21 09:12:00,
2013-08-21 05:17:00,76.9,74.4,30.03,East,81,0.0,0.0,92,0.00,,,0.00,WeatherCatV1.21B27,2013-08-21 09:17:00,
2013-08-21 05:22:00,76.9,74.4,30.03,East,87,0.0,2.0,92,0.00,,,0.00,WeatherCatV1.21B27,2013-08-21 09:22:00,
2013-08-21 05:27:00,76.8,74.3,30.02,East,88,0.0,0.0,92,0.00,,,0.00,WeatherCatV1.21B27,2013-08-21 09:27:00,
2013-08-21 05:32:00,76.8,74.3,30.02,ENE,74,0.0,2.0,92,0.00,,,0.00,WeatherCatV1.21B27,2013-08-21 09:32:00,
2013-08-21 05:37:00,76.9,74.4,30.02,ENE,74,0.0,0.0,92,0.00,,,0.00,WeatherCatV1.21B27,2013-08-21 09:37:00,
2013-08-21 05:42:00,76.8,74.3,30.03,ESE,107,0.0,3.0,92,0.00,,,0.00,WeatherCatV1.21B27,2013-08-21 09:42:00,
2013-08-21 05:47:00,76.8,74.3,30.03,East,99,0.0,1.0,92,0.00,,,0.00,WeatherCatV1.21B27,2013-08-21 09:47:00,
2013-08-21 05:52:00,76.8,74.3,30.03,East,99,0.0,0.0,92,0.00,,,0.00,WeatherCatV1.21B27,2013-08-21 09:52:00,
2013-08-21 05:57:00,76.8,74.3,30.03,East,90,0.0,1.0,92,0.00,,,0.00,WeatherCatV1.21B27,2013-08-21 09:57:00,
2013-08-21 06:03:00,76.8,74.3,30.03,ENE,68,0.0,2.0,92,0.00,,,0.00,WeatherCatV1.21B27,2013-08-21 10:03:00,
2013-08-21 06:08:00,76.8,74.3,30.03,East,94,0.0,1.0,92,0.00,,,0.00,WeatherCatV1.21B27,2013-08-21 10:08:00,
2013-08-21 06:13:00,76.8,74.3,30.03,East,88,2.0,2.0,92,0.00,,,0.00,WeatherCatV1.21B27,2013-08-21 10:13:00,
2013-08-21 06:18:00,76.8,74.3,30.03,East,86,0.0,0.0,92,0.00,,,0.00,WeatherCatV1.21B27,2013-08-21 10:18:00,
2013-08-21 06:23:00,76.8,74.3,30.03,East,88,0.0,0.0,92,0.00,,,0.00,WeatherCatV1.21B27,2013-08-21 10:23:00,
2013-08-21 06:28:00,76.8,74.3,30.04,East,94,0.0,0.0,92,0.00,,,0.00,WeatherCatV1.21B27,2013-08-21 10:28:00,
2013-08-21 06:33:00,76.7,74.2,30.04,East,85,1.0,2.0,92,0.00,,,0.00,WeatherCatV1.21B27,2013-08-21 10:33:00,
2013-08-21 06:38:00,76.7,74.2,30.04,East,90,0.0,1.0,92,0.00,,,0.00,WeatherCatV1.21B27,2013-08-21 10:38:00,
2013-08-21 06:43:00,76.7,74.2,30.04,ENE,78,0.0,3.0,92,0.00,,,0.00,WeatherCatV1.21B27,2013-08-21 10:43:00,
2013-08-21 06:48:00,76.7,74.2,30.04,ENE,78,1.0,4.0,92,0.00,,,0.00,WeatherCatV1.21B27,2013-08-21 10:48:00,
2013-08-21 06:53:00,76.8,74.3,30.05,ENE,78,2.0,6.0,92,0.00,,,0.00,WeatherCatV1.21B27,2013-08-21 10:53:00,
2013-08-21 06:58:00,76.8,74.3,30.05,ENE,73,0.0,1.0,92,0.00,,,0.00,WeatherCatV1.21B27,2013-08-21 10:58:00,
2013-08-21 07:03:00,76.8,74.3,30.05,East,90,0.0,3.0,92,0.00,,,0.00,WeatherCatV1.21B27,2013-08-21 11:03:00,
2013-08-21 07:08:00,76.9,74.4,30.05,East,88,0.0,2.0,92,0.00,,,0.00,WeatherCatV1.21B27,2013-08-21 11:08:00,
2013-08-21 07:13:00,76.8,74.3,30.05,East,100,0.0,3.0,92,0.00,,,0.00,WeatherCatV1.21B27,2013-08-21 11:13:00,
2013-08-21 07:18:00,76.8,74.3,30.05,East,82,0.0,2.0,92,0.00,,,0.00,WeatherCatV1.21B27,2013-08-21 11:18:00,
2013-08-21 07:23:00,76.8,74.3,30.05,East,101,2.0,2.0,92,0.00,,,0.00,WeatherCatV1.21B27,2013-08-21 11:23:00,
2013-08-21 07:28:00,76.9,74.4,30.05,ENE,76,3.0,3.0,92,0.00,,,0.00,WeatherCatV1.21B27,2013-08-21 11:28:00,
2013-08-21 07:33:00,76.9,74.4,30.05,East,85,1.0,4.0,92,0.00,,,0.00,WeatherCatV1.21B27,2013-08-21 11:33:00,
2013-08-21 07:38:00,77.0,74.5,30.05,ENE,59,0.0,3.0,92,0.00,,,0.00,WeatherCatV1.21B27,2013-08-21 11:38:00,
2013-08-21 07:43:00,77.2,74.7,30.05,East,82,1.0,2.0,92,0.00,,,0.00,WeatherCatV1.21B27,2013-08-21 11:43:00,
2013-08-21 07:48:00,77.5,75.0,30.05,East,90,0.0,3.0,92,0.00,,,0.00,WeatherCatV1.21B27,2013-08-21 11:48:00,
2013-08-21 07:53:00,77.9,75.1,30.05,NE,48,0.0,5.0,91,0.00,,,0.00,WeatherCatV1.21B27,2013-08-21 11:53:00,
2013-08-21 07:58:00,78.3,75.1,30.05,NE,45,1.0,2.0,90,0.00,,,0.00,WeatherCatV1.21B27,2013-08-21 11:58:00,
2013-08-21 08:03:00,78.8,75.3,30.05,East,85,2.0,5.0,89,0.00,,,0.00,WeatherCatV1.21B27,2013-08-21 12:03:00,
2013-08-21 08:08:00,79.2,75.3,30.06,East,94,2.0,5.0,88,0.00,,,0.00,WeatherCatV1.21B27,2013-08-21 12:08:00,
2013-08-21 08:13:00,79.6,75.4,30.05,East,96,2.0,5.0,87,0.00,,,0.00,WeatherCatV1.21B27,2013-08-21 12:13:00,
2013-08-21 08:18:00,80.1,75.5,30.05,ESE,108,1.0,6.0,86,0.00,,,0.00,WeatherCatV1.21B27,2013-08-21 12:18:00,
2013-08-21 08:23:00,80.5,75.6,30.05,ENE,64,4.0,5.0,85,0.00,,,0.00,WeatherCatV1.21B27,2013-08-21 12:23:00,
2013-08-21 08:28:00,80.9,75.9,30.05,East,93,1.0,5.0,85,0.00,,,0.00,WeatherCatV1.21B27,2013-08-21 12:28:00,
2013-08-21 08:33:00,81.3,76.0,30.06,NE,49,1.0,4.0,84,0.00,,,0.00,WeatherCatV1.21B27,2013-08-21 12:33:00,
2013-08-21 08:38:00,81.7,76.0,30.06,ENE,63,1.0,6.0,83,0.00,,,0.00,WeatherCatV1.21B27,2013-08-21 12:38:00,
2013-08-21 08:43:00,81.8,76.1,30.06,East,92,0.0,6.0,83,0.00,,,0.00,WeatherCatV1.21B27,2013-08-21 12:43:00,
2013-08-21 08:48:00,81.9,76.2,30.06,ENE,78,1.0,3.0,83,0.00,,,0.00,WeatherCatV1.21B27,2013-08-21 12:48:00,
2013-08-21 08:53:00,81.9,76.2,30.07,ESE,106,4.0,6.0,83,0.00,,,0.00,WeatherCatV1.21B27,2013-08-21 12:53:00,
2013-08-21 08:58:00,82.0,75.9,30.07,East,87,3.0,4.0,82,0.00,,,0.00,WeatherCatV1.21B27,2013-08-21 12:58:00,
2013-08-21 09:03:00,82.1,76.4,30.07,East,92,1.0,5.0,83,0.00,,,0.00,WeatherCatV1.21B27,2013-08-21 13:03:00,
2013-08-21 09:08:00,82.4,76.3,30.07,East,80,0.0,7.0,82,0.00,,,0.00,WeatherCatV1.21B27,2013-08-21 13:08:00,
2013-08-21 09:13:00,82.5,76.4,30.07,East,92,2.0,4.0,82,0.00,,,0.00,WeatherCatV1.21B27,2013-08-21 13:13:00,
2013-08-21 09:18:00,83.0,76.6,30.07,East,96,5.0,7.0,81,0.00,,,0.00,WeatherCatV1.21B27,2013-08-21 13:18:00,
2013-08-21 09:23:00,83.3,76.8,30.07,ESE,116,4.0,6.0,81,0.00,,,0.00,WeatherCatV1.21B27,2013-08-21 13:23:00,
2013-08-21 09:28:00,83.8,76.9,30.07,ESE,111,2.0,6.0,80,0.00,,,0.00,WeatherCatV1.21B27,2013-08-21 13:28:00,
2013-08-21 09:33:00,84.3,77.4,30.07,SE,134,4.0,6.0,80,0.00,,,0.00,WeatherCatV1.21B27,2013-08-21 13:33:00,
2013-08-21 09:38:00,84.7,77.4,30.07,East,95,1.0,8.0,79,0.00,,,0.00,WeatherCatV1.21B27,2013-08-21 13:38:00,
2013-08-21 09:43:00,85.1,77.4,30.08,South,174,4.0,6.0,78,0.00,,,0.00,WeatherCatV1.21B27,2013-08-21 13:43:00,
2013-08-21 09:48:00,85.3,77.6,30.07,East,88,3.0,7.0,78,0.00,,,0.00,WeatherCatV1.21B27,2013-08-21 13:48:00,
2013-08-21 09:53:00,85.4,77.7,30.08,East,101,2.0,6.0,78,0.00,,,0.00,WeatherCatV1.21B27,2013-08-21 13:53:00,
2013-08-21 09:58:00,85.4,77.3,30.08,ENE,78,3.0,10.0,77,0.00,,,0.00,WeatherCatV1.21B27,2013-08-21 13:58:00,
2013-08-21 10:03:00,85.2,77.2,30.08,ESE,103,9.0,10.0,77,0.00,,,0.00,WeatherCatV1.21B27,2013-08-21 14:03:00,
2013-08-21 10:08:00,85.4,77.3,30.07,East,82,8.0,8.0,77,0.00,,,0.00,WeatherCatV1.21B27,2013-08-21 14:08:00,
2013-08-21 10:13:00,85.7,77.6,30.08,East,92,3.0,7.0,77,0.00,,,0.00,WeatherCatV1.21B27,2013-08-21 14:13:00,
2013-08-21 10:18:00,86.0,77.5,30.07,East,88,10.0,10.0,76,0.00,,,0.00,WeatherCatV1.21B27,2013-08-21 14:18:00,
2013-08-21 10:23:00,86.1,77.6,30.08,East,91,2.0,7.0,76,0.00,,,0.00,WeatherCatV1.21B27,2013-08-21 14:23:00,
2013-08-21 10:28:00,86.3,78.2,30.08,East,91,0.0,5.0,77,0.00,,,0.00,WeatherCatV1.21B27,2013-08-21 14:28:00,
2013-08-21 10:33:00,86.8,78.3,30.07,East,89,0.0,5.0,76,0.00,,,0.00,WeatherCatV1.21B27,2013-08-21 14:33:00,
2013-08-21 10:38:00,87.0,77.7,30.08,East,91,2.0,10.0,74,0.00,,,0.00,WeatherCatV1.21B27,2013-08-21 14:38:00,
2013-08-21 10:43:00,87.0,78.1,30.08,ESE,111,2.0,9.0,75,0.00,,,0.00,WeatherCatV1.21B27,2013-08-21 14:43:00,
2013-08-21 10:48:00,87.0,78.5,30.08,East,93,2.0,3.0,76,0.00,,,0.00,WeatherCatV1.21B27,2013-08-21 14:48:00,
2013-08-21 10:53:00,87.1,77.8,30.08,ENE,71,4.0,8.0,74,0.00,,,0.00,WeatherCatV1.21B27,2013-08-21 14:53:00,
2013-08-21 10:58:00,87.4,78.5,30.08,ESE,122,5.0,6.0,75,0.00,,,0.00,WeatherCatV1.21B27,2013-08-21 14:58:00,
2013-08-21 11:03:00,87.6,77.8,30.08,ENE,70,7.0,10.0,73,0.00,,,0.00,WeatherCatV1.21B27,2013-08-21 15:03:00,
2013-08-21 11:08:00,87.6,78.3,30.08,North,11,0.0,6.0,74,0.00,,,0.00,WeatherCatV1.21B27,2013-08-21 15:08:00,
2013-08-21 11:13:00,87.9,78.1,30.08,ESE,105,1.0,6.0,73,0.00,,,0.00,WeatherCatV1.21B27,2013-08-21 15:13:00,
2013-08-21 11:18:00,88.2,78.4,30.08,East,91,0.0,4.0,73,0.00,,,0.00,WeatherCatV1.21B27,2013-08-21 15:18:00,
2013-08-21 11:23:00,88.6,78.8,30.08,East,101,5.0,6.0,73,0.00,,,0.00,WeatherCatV1.21B27,2013-08-21 15:23:00,
2013-08-21 11:28:00,88.6,78.4,30.08,ESE,105,1.0,10.0,72,0.00,,,0.00,WeatherCatV1.21B27,2013-08-21 15:28:00,
2013-08-21 11:33:00,88.4,78.2,30.08,East,95,6.0,6.0,72,0.00,,,0.00,WeatherCatV1.21B27,2013-08-21 15:33:00,
2013-08-21 11:38:00,88.3,78.1,30.07,East,97,0.0,6.0,72,0.00,,,0.00,WeatherCatV1.21B27,2013-08-21 15:38:00,
2013-08-21 11:43:00,88.5,77.9,30.07,ENE,75,1.0,6.0,71,0.00,,,0.00,WeatherCatV1.21B27,2013-08-21 15:43:00,
2013-08-21 11:48:00,88.8,77.7,30.07,ESE,116,1.0,6.0,70,0.00,,,0.00,WeatherCatV1.21B27,2013-08-21 15:48:00,
2013-08-21 11:53:00,89.0,77.9,30.07,ENE,77,1.0,9.0,70,0.00,,,0.00,WeatherCatV1.21B27,2013-08-21 15:53:00,
2013-08-21 11:58:00,89.6,78.0,30.07,East,84,6.0,9.0,69,0.00,,,0.00,WeatherCatV1.21B27,2013-08-21 15:58:00,
2013-08-21 12:03:00,89.5,77.9,30.07,ENE,70,6.0,6.0,69,0.00,,,0.00,WeatherCatV1.21B27,2013-08-21 16:03:00,
2013-08-21 12:08:00,89.6,77.6,30.07,ENE,70,5.0,8.0,68,0.00,,,0.00,WeatherCatV1.21B27,2013-08-21 16:08:00,
2013-08-21 12:13:00,90.1,78.1,30.07,ESE,104,2.0,8.0,68,0.00,,,0.00,WeatherCatV1.21B27,2013-08-21 16:13:00,
2013-08-21 12:18:00,90.6,79.0,30.07,ESE,111,5.0,6.0,69,0.00,,,0.00,WeatherCatV1.21B27,2013-08-21 16:18:00,
2013-08-21 12:23:00,90.6,77.2,30.06,SE,132,4.0,7.0,65,0.00,,,0.00,WeatherCatV1.21B27,2013-08-21 16:23:00,
2013-08-21 12:28:00,90.5,77.6,30.06,East,91,6.0,8.0,66,0.00,,,0.00,WeatherCatV1.21B27,2013-08-21 16:28:00,
2013-08-21 12:33:00,90.8,76.9,30.06,North,0,3.0,7.0,64,0.00,,,0.00,WeatherCatV1.21B27,2013-08-21 16:33:00,
2013-08-21 12:38:00,90.9,77.0,30.06,East,83,2.0,8.0,64,0.00,,,0.00,WeatherCatV1.21B27,2013-08-21 16:38:00,
2013-08-21 12:43:00,91.0,76.1,30.06,East,82,4.0,8.0,62,0.00,,,0.00,WeatherCatV1.21B27,2013-08-21 16:43:00,
2013-08-21 12:48:00,91.2,76.8,30.05,East,91,4.0,5.0,63,0.00,,,0.00,WeatherCatV1.21B27,2013-08-21 16:48:00,
2013-08-21 12:53:00,91.3,76.4,30.05,ESE,121,2.0,8.0,62,0.00,,,0.00,WeatherCatV1.21B27,2013-08-21 16:53:00,
2013-08-21 12:58:00,91.4,77.0,30.05,East,99,6.0,6.0,63,0.00,,,0.00,WeatherCatV1.21B27,2013-08-21 16:58:00,
2013-08-21 13:03:00,91.6,77.2,30.05,NNE,30,1.0,4.0,63,0.00,,,0.00,WeatherCatV1.21B27,2013-08-21 17:03:00,
2013-08-21 13:08:00,92.1,77.2,30.05,ENE,61,3.0,7.0,62,0.00,,,0.00,WeatherCatV1.21B27,2013-08-21 17:08:00,
2013-08-21 13:13:00,92.1,76.7,30.05,East,87,3.0,4.0,61,0.00,,,0.00,WeatherCatV1.21B27,2013-08-21 17:13:00,
2013-08-21 13:18:00,92.3,77.3,30.04,ESE,105,4.0,8.0,62,0.00,,,0.00,WeatherCatV1.21B27,2013-08-21 17:18:00,
2013-08-21 13:23:00,92.2,76.8,30.04,ENE,74,0.0,6.0,61,0.00,,,0.00,WeatherCatV1.21B27,2013-08-21 17:23:00,
2013-08-21 13:28:00,91.8,76.4,30.04,East,82,2.0,8.0,61,0.00,,,0.00,WeatherCatV1.21B27,2013-08-21 17:28:00,
2013-08-21 13:33:00,91.3,75.9,30.04,ENE,70,2.0,7.0,61,0.00,,,0.00,WeatherCatV1.21B27,2013-08-21 17:33:00,
2013-08-21 13:38:00,91.2,77.3,30.04,ESE,117,6.0,8.0,64,0.00,,,0.00,WeatherCatV1.21B27,2013-08-21 17:38:00,
2013-08-21 13:43:00,91.3,77.4,30.04,ESE,108,0.0,1.0,64,0.00,,,0.00,WeatherCatV1.21B27,2013-08-21 17:43:00,
2013-08-21 13:48:00,91.5,77.1,30.04,ENE,63,6.0,6.0,63,0.00,,,0.00,WeatherCatV1.21B27,2013-08-21 17:48:00,
2013-08-21 13:53:00,91.3,75.4,30.04,ENE,57,1.0,7.0,60,0.00,,,0.00,WeatherCatV1.21B27,2013-08-21 17:53:00,
2013-08-21 13:59:00,91.4,76.0,30.04,East,99,5.0,6.0,61,0.00,,,0.00,WeatherCatV1.21B27,2013-08-21 17:59:00,
2013-08-21 14:04:00,91.9,76.5,30.03,ESE,119,4.0,6.0,61,0.00,,,0.00,WeatherCatV1.21B27,2013-08-21 18:04:00,
2013-08-21 14:09:00,92.4,75.9,30.03,NE,49,9.0,11.0,59,0.00,,,0.00,WeatherCatV1.21B27,2013-08-21 18:09:00,
2013-08-21 14:14:00,92.7,77.2,30.03,South,185,5.0,7.0,61,0.00,,,0.00,WeatherCatV1.21B27,2013-08-21 18:14:00,
2013-08-21 14:19:00,93.0,77.0,30.02,ESE,117,2.0,3.0,60,0.00,,,0.00,WeatherCatV1.21B27,2013-08-21 18:19:00,
2013-08-21 14:24:00,93.5,76.5,30.02,ENE,73,12.0,12.0,58,0.00,,,0.00,WeatherCatV1.21B27,2013-08-21 18:24:00,
2013-08-21 14:29:00,93.3,76.8,30.02,East,80,8.0,9.0,59,0.00,,,0.00,WeatherCatV1.21B27,2013-08-21 18:29:00,
2013-08-21 14:34:00,93.3,75.8,30.02,ESE,103,1.0,7.0,57,0.00,,,0.00,WeatherCatV1.21B27,2013-08-21 18:34:00,
2013-08-21 14:39:00,93.5,75.9,30.01,SSE,167,4.0,11.0,57,0.00,,,0.00,WeatherCatV1.21B27,2013-08-21 18:39:00,
2013-08-21 14:44:00,93.6,75.5,30.01,ENE,78,2.0,7.0,56,0.00,,,0.00,WeatherCatV1.21B27,2013-08-21 18:44:00,
2013-08-21 14:49:00,93.8,75.7,30.01,ENE,71,4.0,4.0,56,0.00,,,0.00,WeatherCatV1.21B27,2013-08-21 18:49:00,
2013-08-21 14:54:00,94.2,76.1,30.00,ENE,77,3.0,6.0,56,0.00,,,0.00,WeatherCatV1.21B27,2013-08-21 18:54:00,
2013-08-21 14:59:00,94.3,76.1,30.00,NNE,13,2.0,4.0,56,0.00,,,0.00,WeatherCatV1.21B27,2013-08-21 18:59:00,
2013-08-21 15:04:00,94.4,75.1,30.00,NE,49,4.0,6.0,54,0.00,,,0.00,WeatherCatV1.21B27,2013-08-21 19:04:00,
2013-08-21 15:09:00,94.4,75.7,30.00,NE,50,0.0,5.0,55,0.00,,,0.00,WeatherCatV1.21B27,2013-08-21 19:09:00,
2013-08-21 15:14:00,94.6,75.3,30.00,ENE,68,6.0,6.0,54,0.00,,,0.00,WeatherCatV1.21B27,2013-08-21 19:14:00,
2013-08-21 15:19:00,94.4,75.1,30.00,North,349,1.0,6.0,54,0.00,,,0.00,WeatherCatV1.21B27,2013-08-21 19:19:00,
2013-08-21 15:24:00,93.9,74.1,30.00,ESE,113,5.0,8.0,53,0.00,,,0.00,WeatherCatV1.21B27,2013-08-21 19:24:00,
2013-08-21 15:29:00,93.4,74.2,29.99,ENE,72,5.0,5.0,54,0.00,,,0.00,WeatherCatV1.21B27,2013-08-21 19:29:00,
2013-08-21 15:34:00,93.6,74.4,29.99,North,355,2.0,5.0,54,0.00,,,0.00,WeatherCatV1.21B27,2013-08-21 19:34:00,
2013-08-21 15:39:00,94.1,76.5,29.98,ENE,76,2.0,8.0,57,0.00,,,0.00,WeatherCatV1.21B27,2013-08-21 19:39:00,
2013-08-21 15:44:00,94.3,75.1,29.98,East,98,5.0,8.0,54,0.00,,,0.00,WeatherCatV1.21B27,2013-08-21 19:44:00,
2013-08-21 15:49:00,93.8,74.6,29.98,East,95,1.0,6.0,54,0.00,,,0.00,WeatherCatV1.21B27,2013-08-21 19:49:00,
2013-08-21 15:54:00,93.7,75.1,29.98,East,93,3.0,8.0,55,0.00,,,0.00,WeatherCatV1.21B27,2013-08-21 19:54:00,
2013-08-21 15:59:00,93.5,75.4,29.98,North,9,4.0,8.0,56,0.00,,,0.00,WeatherCatV1.21B27,2013-08-21 19:59:00,
2013-08-21 16:04:00,93.3,75.2,29.97,ENE,76,0.0,1.0,56,0.00,,,0.00,WeatherCatV1.21B27,2013-08-21 20:04:00,
2013-08-21 16:09:00,93.1,75.0,29.97,ENE,67,3.0,8.0,56,0.00,,,0.00,WeatherCatV1.21B27,2013-08-21 20:09:00,
2013-08-21 16:14:00,92.7,76.7,29.97,ENE,67,0.0,7.0,60,0.00,,,0.00,WeatherCatV1.21B27,2013-08-21 20:14:00,
2013-08-21 16:19:00,92.0,78.0,29.96,ESE,109,2.0,3.0,64,0.00,,,0.00,WeatherCatV1.21B27,2013-08-21 20:19:00,
2013-08-21 16:24:00,91.2,77.8,29.97,East,80,0.0,2.0,65,0.00,,,0.00,WeatherCatV1.21B27,2013-08-21 20:24:00,
2013-08-21 16:29:00,90.1,76.2,29.99,South,173,5.0,14.0,64,0.00,,,0.00,WeatherCatV1.21B27,2013-08-21 20:29:00,
2013-08-21 16:34:00,86.4,75.0,30.00,ESE,119,6.0,13.0,69,0.00,,,0.00,WeatherCatV1.21B27,2013-08-21 20:34:00,
2013-08-21 16:39:00,83.0,74.6,30.00,SE,136,7.0,22.0,76,0.00,,,0.00,WeatherCatV1.21B27,2013-08-21 20:39:00,
2013-08-21 16:44:00,79.5,72.4,30.01,East,94,12.0,20.0,79,1.36,,,0.04,WeatherCatV1.21B27,2013-08-21 20:44:00,
2013-08-21 16:49:00,76.8,70.2,30.01,East,90,5.0,16.0,80,2.65,,,0.24,WeatherCatV1.21B27,2013-08-21 20:49:00,
2013-08-21 16:54:00,75.3,70.5,30.01,SE,143,1.0,7.0,85,1.41,,,0.36,WeatherCatV1.21B27,2013-08-21 20:54:00,
2013-08-21 16:59:00,75.2,71.7,30.00,South,187,1.0,1.0,89,1.36,,,0.46,WeatherCatV1.21B27,2013-08-21 20:59:00,
2013-08-21 17:04:00,75.1,72.0,30.02,South,182,4.0,5.0,90,0.43,,,0.50,WeatherCatV1.21B27,2013-08-21 21:04:00,
2013-08-21 17:09:00,75.3,72.5,30.01,South,188,0.0,4.0,91,0.10,,,0.50,WeatherCatV1.21B27,2013-08-21 21:09:00,
2013-08-21 17:14:00,75.2,72.4,30.01,South,188,0.0,0.0,91,0.07,,,0.51,WeatherCatV1.21B27,2013-08-21 21:14:00,
2013-08-21 17:19:00,75.3,72.5,30.02,SSW,211,0.0,1.0,91,0.07,,,0.51,WeatherCatV1.21B27,2013-08-21 21:19:00,
2013-08-21 17:24:00,75.2,72.4,30.01,SW,234,0.0,0.0,91,0.05,,,0.51,WeatherCatV1.21B27,2013-08-21 21:24:00,
2013-08-21 17:29:00,75.0,72.2,30.00,SW,234,0.0,1.0,91,0.00,,,0.51,WeatherCatV1.21B27,2013-08-21 21:29:00,
2013-08-21 17:34:00,75.1,72.6,30.00,SW,234,0.0,0.0,92,0.00,,,0.51,WeatherCatV1.21B27,2013-08-21 21:34:00,
2013-08-21 17:39:00,75.2,72.4,29.99,SW,234,0.0,1.0,91,0.00,,,0.51,WeatherCatV1.21B27,2013-08-21 21:39:00,
2013-08-21 17:44:00,75.2,72.4,29.99,SW,234,0.0,0.0,91,0.00,,,0.51,WeatherCatV1.21B27,2013-08-21 21:44:00,
2013-08-21 17:49:00,75.1,72.3,30.00,SW,234,0.0,0.0,91,0.00,,,0.51,WeatherCatV1.21B27,2013-08-21 21:49:00,
2013-08-21 17:54:00,75.1,72.6,30.02,SW,234,0.0,0.0,92,0.00,,,0.51,WeatherCatV1.21B27,2013-08-21 21:54:00,
2013-08-21 17:59:00,75.4,73.2,30.02,SW,234,1.0,1.0,93,0.00,,,0.51,WeatherCatV1.21B27,2013-08-21 21:59:00,
2013-08-21 18:04:00,75.7,73.5,30.03,SW,234,0.0,0.0,93,0.00,,,0.51,WeatherCatV1.21B27,2013-08-21 22:04:00,
2013-08-21 18:09:00,75.8,73.6,30.02,WSW,238,0.0,1.0,93,0.00,,,0.51,WeatherCatV1.21B27,2013-08-21 22:09:00,
2013-08-21 18:14:00,76.1,73.9,30.03,WNW,299,0.0,4.0,93,0.00,,,0.51,WeatherCatV1.21B27,2013-08-21 22:14:00,
2013-08-21 18:19:00,76.4,74.2,30.04,NNW,331,4.0,4.0,93,0.00,,,0.51,WeatherCatV1.21B27,2013-08-21 22:19:00,
2013-08-21 18:24:00,76.4,73.9,30.04,NNW,348,2.0,3.0,92,0.00,,,0.51,WeatherCatV1.21B27,2013-08-21 22:24:00,
2013-08-21 18:29:00,76.4,73.9,30.03,NNW,339,2.0,5.0,92,0.00,,,0.51,WeatherCatV1.21B27,2013-08-21 22:29:00,
2013-08-21 18:34:00,76.5,74.0,30.03,North,5,2.0,2.0,92,0.00,,,0.51,WeatherCatV1.21B27,2013-08-21 22:34:00,
2013-08-21 18:39:00,76.7,74.2,30.03,North,5,0.0,2.0,92,0.00,,,0.51,WeatherCatV1.21B27,2013-08-21 22:39:00,
2013-08-21 18:44:00,76.7,74.2,30.02,North,5,0.0,1.0,92,0.00,,,0.51,WeatherCatV1.21B27,2013-08-21 22:44:00,
2013-08-21 18:49:00,76.9,74.4,30.02,NNE,15,0.0,4.0,92,0.00,,,0.51,WeatherCatV1.21B27,2013-08-21 22:49:00,
2013-08-21 18:54:00,76.9,74.4,30.02,NE,54,0.0,2.0,92,0.00,,,0.51,WeatherCatV1.21B27,2013-08-21 22:54:00,
2013-08-21 18:59:00,76.9,74.4,30.02,ENE,59,0.0,2.0,92,0.00,,,0.51,WeatherCatV1.21B27,2013-08-21 22:59:00,
2013-08-21 19:04:00,76.8,74.3,30.02,ENE,59,0.0,1.0,92,0.00,,,0.51,WeatherCatV1.21B27,2013-08-21 23:04:00,
2013-08-21 19:09:00,76.9,74.4,30.02,NE,56,0.0,0.0,92,0.00,,,0.51,WeatherCatV1.21B27,2013-08-21 23:09:00,
2013-08-21 19:14:00,77.0,74.5,30.02,NE,40,1.0,1.0,92,0.00,,,0.51,WeatherCatV1.21B27,2013-08-21 23:14:00,
2013-08-21 19:20:00,77.1,74.6,30.02,NW,317,0.0,3.0,92,0.00,,,0.51,WeatherCatV1.21B27,2013-08-21 23:20:00,
2013-08-21 19:25:00,77.2,74.7,30.03,NNW,346,0.0,2.0,92,0.00,,,0.51,WeatherCatV1.21B27,2013-08-21 23:25:00,
2013-08-21 19:30:00,77.2,74.7,30.03,North,0,0.0,0.0,92,0.00,,,0.51,WeatherCatV1.21B27,2013-08-21 23:30:00,
2013-08-21 19:35:00,77.3,74.8,30.03,NNE,17,0.0,2.0,92,0.00,,,0.52,WeatherCatV1.21B27,2013-08-21 23:35:00,
2013-08-21 19:40:00,77.3,74.8,30.03,NNE,17,0.0,0.0,92,0.00,,,0.52,WeatherCatV1.21B27,2013-08-21 23:40:00,
2013-08-21 19:45:00,77.3,74.8,30.03,North,355,0.0,0.0,92,0.00,,,0.52,WeatherCatV1.21B27,2013-08-21 23:45:00,
2013-08-21 19:50:00,77.3,74.8,30.03,NE,53,0.0,1.0,92,0.00,,,0.52,WeatherCatV1.21B27,2013-08-21 23:50:00,
2013-08-21 19:55:00,77.3,74.8,30.04,NE,54,0.0,2.0,92,0.00,,,0.53,WeatherCatV1.21B27,2013-08-21 23:55:00,
2013-08-21 20:00:00,77.3,74.8,30.03,ENE,57,0.0,1.0,92,0.00,,,0.53,WeatherCatV1.21B27,2013-08-22 00:00:00,
2013-08-21 20:05:00,77.3,74.8,30.04,NNE,16,0.0,1.0,92,0.04,,,0.54,WeatherCatV1.21B27,2013-08-22 00:05:00,
2013-08-21 20:10:00,77.2,74.7,30.04,ENE,78,1.0,4.0,92,0.04,,,0.54,WeatherCatV1.21B27,2013-08-22 00:10:00,
2013-08-21 20:15:00,77.1,74.6,30.04,NE,40,0.0,3.0,92,0.04,,,0.54,WeatherCatV1.21B27,2013-08-22 00:15:00,
2013-08-21 20:20:00,77.2,74.7,30.05,NE,40,0.0,1.0,92,0.04,,,0.54,WeatherCatV1.21B27,2013-08-22 00:20:00,
2013-08-21 20:25:00,77.1,74.9,30.05,NE,40,0.0,1.0,93,0.04,,,0.55,WeatherCatV1.21B27,2013-08-22 00:25:00,
2013-08-21 20:30:00,77.2,75.0,30.05,NE,40,0.0,0.0,93,0.04,,,0.55,WeatherCatV1.21B27,2013-08-22 00:30:00,
2013-08-21 20:35:00,77.3,75.1,30.05,NNE,20,0.0,1.0,93,0.04,,,0.55,WeatherCatV1.21B27,2013-08-22 00:35:00,
2013-08-21 20:40:00,77.4,75.2,30.05,NNE,20,0.0,0.0,93,0.00,,,0.56,WeatherCatV1.21B27,2013-08-22 00:40:00,
2013-08-21 20:45:00,77.4,75.2,30.05,NNE,20,0.0,1.0,93,0.00,,,0.56,WeatherCatV1.21B27,2013-08-22 00:45:00,
2013-08-21 20:50:00,77.4,75.2,30.05,North,355,1.0,3.0,93,0.00,,,0.56,WeatherCatV1.21B27,2013-08-22 00:50:00,
2013-08-21 20:55:00,77.3,74.8,30.05,North,355,0.0,2.0,92,0.00,,,0.56,WeatherCatV1.21B27,2013-08-22 00:55:00,
2013-08-21 21:00:00,77.1,74.6,30.05,North,9,0.0,2.0,92,0.00,,,0.56,WeatherCatV1.21B27,2013-08-22 01:00:00,
2013-08-21 21:05:00,77.1,74.6,30.05,NNW,347,0.0,2.0,92,0.00,,,0.56,WeatherCatV1.21B27,2013-08-22 01:05:00,
2013-08-21 21:10:00,77.0,74.8,30.05,North,355,0.0,2.0,93,0.00,,,0.56,WeatherCatV1.21B27,2013-08-22 01:10:00,
2013-08-21 21:15:00,77.0,74.8,30.05,North,355,1.0,3.0,93,0.00,,,0.56,WeatherCatV1.21B27,2013-08-22 01:15:00,
2013-08-21 21:20:00,77.0,74.8,30.05,NNW,340,0.0,1.0,93,0.00,,,0.57,WeatherCatV1.21B27,2013-08-22 01:20:00,
2013-08-21 21:25:00,77.0,74.8,30.05,NNW,340,0.0,0.0,93,0.00,,,0.57,WeatherCatV1.21B27,2013-08-22 01:25:00,
2013-08-21 21:30:00,76.9,74.7,30.06,NNW,343,0.0,2.0,93,0.00,,,0.57,WeatherCatV1.21B27,2013-08-22 01:30:00,
2013-08-21 21:35:00,76.8,74.6,30.06,North,5,0.0,0.0,93,0.00,,,0.57,WeatherCatV1.21B27,2013-08-22 01:35:00,
2013-08-21 21:40:00,76.8,74.6,30.06,North,9,0.0,1.0,93,0.00,,,0.57,WeatherCatV1.21B27,2013-08-22 01:40:00,
2013-08-21 21:45:00,76.7,74.5,30.06,ENE,57,0.0,1.0,93,0.00,,,0.57,WeatherCatV1.21B27,2013-08-22 01:45:00,
2013-08-21 21:50:00,76.7,74.5,30.06,ENE,66,0.0,1.0,93,0.00,,,0.57,WeatherCatV1.21B27,2013-08-22 01:50:00,
2013-08-21 21:55:00,76.8,74.6,30.06,ENE,68,0.0,2.0,93,0.00,,,0.57,WeatherCatV1.21B27,2013-08-22 01:55:00,
2013-08-21 22:00:00,76.7,74.5,30.06,ENE,71,0.0,4.0,93,0.00,,,0.57,WeatherCatV1.21B27,2013-08-22 02:00:00,
2013-08-21 22:05:00,76.7,74.5,30.05,ENE,71,0.0,0.0,93,0.00,,,0.57,WeatherCatV1.21B27,2013-08-22 02:05:00,
2013-08-21 22:10:00,76.7,74.5,30.05,East,80,1.0,2.0,93,0.00,,,0.57,WeatherCatV1.21B27,2013-08-22 02:10:00,
2013-08-21 22:15:00,76.7,74.5,30.05,East,79,1.0,2.0,93,0.00,,,0.57,WeatherCatV1.21B27,2013-08-22 02:15:00,
2013-08-21 22:20:00,76.7,74.5,30.05,ENE,74,0.0,0.0,93,0.00,,,0.57,WeatherCatV1.21B27,2013-08-22 02:20:00,
2013-08-21 22:25:00,76.7,74.5,30.05,East,83,0.0,2.0,93,0.00,,,0.57,WeatherCatV1.21B27,2013-08-22 02:25:00,
2013-08-21 22:30:00,76.7,74.5,30.05,East,88,0.0,3.0,93,0.00,,,0.57,WeatherCatV1.21B27,2013-08-22 02:30:00,
2013-08-21 22:35:00,76.7,74.5,30.05,East,89,0.0,1.0,93,0.00,,,0.57,WeatherCatV1.21B27,2013-08-22 02:35:00,
2013-08-21 22:40:00,76.7,74.5,30.05,ENE,76,1.0,1.0,93,0.00,,,0.57,WeatherCatV1.21B27,2013-08-22 02:40:00,
2013-08-21 22:45:00,76.7,74.5,30.04,ENE,76,1.0,1.0,93,0.00,,,0.57,WeatherCatV1.21B27,2013-08-22 02:45:00,
2013-08-21 22:50:00,76.8,74.6,30.05,East,83,0.0,4.0,93,0.00,,,0.57,WeatherCatV1.21B27,2013-08-22 02:50:00,
2013-08-21 22:55:00,76.9,74.7,30.04,ENE,69,2.0,4.0,93,0.00,,,0.57,WeatherCatV1.21B27,2013-08-22 02:55:00,
2013-08-21 23:00:00,76.9,74.7,30.04,ENE,65,4.0,5.0,93,0.00,,,0.57,WeatherCatV1.21B27,2013-08-22 03:00:00,
2013-08-21 23:05:00,77.0,74.8,30.04,East,100,0.0,4.0,93,0.00,,,0.57,WeatherCatV1.21B27,2013-08-22 03:05:00,
2013-08-21 23:10:00,77.0,74.8,30.05,East,99,0.0,0.0,93,0.00,,,0.57,WeatherCatV1.21B27,2013-08-22 03:10:00,
2013-08-21 23:15:00,77.1,74.9,30.05,East,93,1.0,4.0,93,0.00,,,0.57,WeatherCatV1.21B27,2013-08-22 03:15:00,
2013-08-21 23:20:00,77.1,74.9,30.04,East,84,1.0,2.0,93,0.00,,,0.57,WeatherCatV1.21B27,2013-08-22 03:20:00,
2013-08-21 23:25:00,77.1,74.9,30.04,East,84,0.0,2.0,93,0.00,,,0.57,WeatherCatV1.21B27,2013-08-22 03:25:00,
2013-08-21 23:30:00,77.1,74.9,30.04,East,84,0.0,0.0,93,0.00,,,0.57,WeatherCatV1.21B27,2013-08-22 03:30:00,
2013-08-21 23:35:00,77.1,74.9,30.04,East,84,0.0,1.0,93,0.00,,,0.57,WeatherCatV1.21B27,2013-08-22 03:35:00,
2013-08-21 23:40:00,77.1,74.9,30.04,East,84,0.0,2.0,93,0.00,,,0.57,WeatherCatV1.21B27,2013-08-22 03:40:00,
2013-08-21 23:45:00,77.1,74.9,30.05,East,86,0.0,3.0,93,0.00,,,0.57,WeatherCatV1.21B27,2013-08-22 03:45:00,
2013-08-21 23:50:00,77.1,74.9,30.05,East,86,0.0,1.0,93,0.00,,,0.57,WeatherCatV1.21B27,2013-08-22 03:50:00,
2013-08-21 23:55:00,77.1,74.9,30.05,East,92,0.0,2.0,93,0.00,,,0.57,WeatherCatV1.21B27,2013-08-22 03:55:00,